STARLINK-4759 (53829 NORAD) Tracking and Keplerian Element Data

This shows tracking and keplerian element data for the satellite.

Feedback or suggestion? Click here.




ElementValue
Catalog53829
NameSTARLINK-4759
Epoch Orbit1047
Epoch Day325.33334491
Epoch Year2022
RAAN310.7559
Inclination53.2171
Eccentricity0.0001351
Argument of Perigee55.2591
Mean Anonmoly297.0516
Mean Motion15.14824154
Decay Rate-0.01117632
L11 53829U 22114M 22325.33334491 -.01117632 00000+0 -64389-1 0 9994
L22 53829 53.2171 310.7559 0001351 55.2591 297.0516 15.14824154 10472



Live tracking and technical data element details for STARLINK-4759 (NORAD 53829). STARLINK-4759 can be tracked NOW for your location showing map with azimuth and elevation plus other details from your city location.







IsCatalogInMostPopularTable: catalog: 53829, numindb: -1

Insert: records affected: 1


GetName: 53829 STARLINK-4759

Hit Count: inserted at: Mon, 28 Nov 2022 05:21:00 GMT